Location: Newark
(50.0336°N, 22.0047°E)
Time: 13:40:14
(UTC+00:00)

N. Korean satellite - Pass Details

Date: 27 January 2020
Orbit: 456 x 505 km, 97.2° (Epoch: 24 February)

Event Time Altitude Azimuth Distance (km) Brightness Sun altitude
Rises 03:16:43 0° 30° (NNE) 2,545 10.7 -28.2°
Reaches altitude 10° 03:19:40 10° 58° (ENE) 1,671 10.0 -27.7°
Maximum altitude 03:21:33 14° 90° (E) 1,460 9.9 -27.4°
Drops below altitude 10° 03:23:26 10° 121° (ESE) 1,678 10.0 -27.1°
Sets 03:26:24 0° 149° (SSE) 2,564 10.6 -26.6°
